1507204800.27,5490,13.06,72784.5,2.93,2.27,2.27,0,*4D
1507204801.46,5491,13.06,72716.3,2.95,2.35,2.25,0,*4B
1507204802.68,5492,13.06,72750.5,2.95,2.13,2.01,0,*4A
1507204803.92,5493,13.06,72802.3,2.93,2.25,2.09,0,*40
1507204805.16,5494,13.06,72732.5,2.93,2.21,2.09,0,*43
1507204806.4,5495,13.06,72672.3,2.93,2.09,1.89,0,*43
1507204807.62,5496,13.06,72766.0,2.93,1.97,1.79,0,*4B
1507204808.86,5497,13.06,72800.3,2.93,2.01,1.89,0,*49
1507204810.1,5498,13.06,72682.5,2.93,2.21,2.01,0,*47
1507204811.31,5499,13.06,72690.5,2.93,1.79,1.67,0,*4B
1507204812.56,5500,13.06,72804.3,2.93,2.25,2.13,0,*40
1507204813.78,5501,13.06,72790.0,2.93,2.39,2.27,0,*4B
1507204815.02,5502,13.06,72786.3,2.93,2.73,2.59,0,*4F
1507204816.24,5503,13.06,72832.5,2.93,2.81,2.61,0,*48
1507204817.48,5504,13.06,72858.3,2.93,2.85,2.69,0,*43
1507204818.7,5505,13.06,72820.3,2.95,2.73,2.51,0,*46
1507204819.92,5506,13.06,72830.8,2.95,2.73,2.59,0,*4D
1507204821.13,5507,13.06,72856.3,2.95,2.81,2.69,0,*42
1507204822.36,5508,13.06,72878.0,2.97,2.65,2.55,0,*4A
1507204823.59,5509,13.06,72898.3,2.97,2.51,2.27,0,*49
1507204824.78,5510,13.06,72856.5,3.01,2.27,2.25,0,*4C
1507204825.98,5511,13.06,72772.0,3.01,2.27,2.17,0,*4C
1507204827.23,5512,13.06,72806.0,2.97,2.25,2.13,0,*47
1507204828.46,5513,13.06,72790.3,3.01,2.43,2.25,0,*4D
1507204829.69,5514,13.06,72680.0,2.97,2.27,2.17,0,*47
1507204830.91,5515,13.06,72692.3,2.97,1.93,1.79,0,*41
1507204832.13,5516,13.06,72706.0,3.01,2.25,2.05,0,*4A
1507204833.36,5517,13.06,72706.0,2.97,2.31,2.25,0,*42
1507204834.58,5518,13.06,72700.5,3.01,2.39,2.25,0,*4B
1507204835.83,5519,13.06,72796.3,2.97,2.39,2.25,0,*44
1507204837.05,5520,13.06,72792.5,3.01,2.13,1.93,0,*46
1507204838.27,5521,13.06,72798.5,2.97,1.89,1.83,0,*48
1507204839.52,5522,13.06,72812.3,2.97,2.51,2.39,0,*4F
1507204840.72,5523,13.06,72796.5,3.01,2.61,2.39,0,*43
1507204841.95,5524,13.06,72762.5,2.97,2.61,2.51,0,*44
1507204843.17,5525,13.06,72698.3,2.97,2.55,2.31,0,*44
1507204844.39,5526,13.06,72722.3,2.97,2.51,2.27,0,*44
1507204845.62,5527,13.06,72740.5,2.97,2.61,2.39,0,*49
1507204846.84,5528,13.06,72742.5,3.01,2.73,2.55,0,*41
1507204848.03,5529,13.06,72754.5,3.01,2.61,2.43,0,*44
1507204849.28,5530,13.06,72742.3,3.07,2.73,2.59,0,*42
1507204850.5,5531,13.06,72754.0,3.05,2.73,2.47,0,*4E
1507204851.7,5532,13.06,72762.5,3.05,2.85,2.61,0,*40
1507204852.92,5533,13.06,72780.5,3.05,2.73,2.59,0,*43
1507204854.15,5534,13.06,72792.3,3.05,2.81,2.59,0,*49
1507204855.38,5535,13.06,72800.3,3.07,2.81,2.61,0,*41
1507204856.63,5536,13.06,72800.5,3.07,2.81,2.59,0,*49
1507204857.88,5537,13.06,72796.3,3.07,2.73,2.51,0,*4D
1507204859.13,5538,13.06,72794.0,3.07,2.73,2.51,0,*42
1507204860.35,5539,13.06,72774.5,3.07,2.51,2.35,0,*41
1507204861.54,5540,13.06,72768.5,3.09,2.69,2.65,0,*4F
1507204862.79,5541,13.06,72776.8,3.07,2.81,2.59,0,*49
1507204863.99,5542,13.06,72808.8,3.09,2.89,2.65,0,*43
1507204865.18,5543,13.06,72816.0,3.09,2.85,2.65,0,*4E
1507204866.4,5544,13.06,72822.8,3.11,2.73,2.61,0,*4D
1507204867.6,5545,13.06,72814.8,3.09,2.61,2.43,0,*46
1507204868.82,5546,13.06,72816.5,3.09,2.55,2.39,0,*4F
1507204870.04,5547,13.06,72822.3,3.09,2.73,2.51,0,*44
1507204871.25,5548,13.06,72832.3,3.11,2.61,2.55,0,*45
1507204872.49,5549,13.06,72826.5,3.11,2.77,2.55,0,*43
1507204873.71,5550,13.06,72820.0,3.11,2.43,2.27,0,*49
1507204874.93,5551,13.06,72856.3,3.09,2.55,2.39,0,*49
1507204876.15,5552,13.06,72876.0,3.11,2.51,2.27,0,*48
1507204877.37,5553,13.06,72844.0,3.11,2.27,2.01,0,*4C
1507204878.56,5554,13.06,72826.0,3.09,2.13,1.83,0,*4C
1507204879.78,5555,13.06,72850.8,3.09,2.05,1.93,0,*4B
1507204880.97,5556,13.06,72836.0,3.09,2.05,1.83,0,*49
1507204882.18,5557,13.06,72846.0,3.09,2.01,1.71,0,*41
1507204883.43,5558,13.06,72842.8,3.07,2.25,2.01,0,*42
1507204884.65,5559,13.06,72844.8,3.07,2.31,2.09,0,*4E
1507204885.9,5560,13.06,72836.0,3.07,2.39,2.21,0,*46
1507204887.12,5561,13.06,72814.5,3.09,2.39,2.17,0,*4C
1507204888.31,5562,13.06,72804.5,3.09,2.35,2.05,0,*40
1507204889.52,5563,13.06,72816.8,3.09,2.05,1.89,0,*45
1507204890.74,5564,13.06,72842.8,3.09,2.25,1.93,0,*4B
1507204891.98,5565,13.06,72840.8,3.07,2.21,1.97,0,*44
1507204893.21,5566,13.06,72826.5,3.05,2.01,1.85,0,*44
1507204894.45,5567,13.06,72802.3,3.07,1.89,1.67,0,*48
1507204895.64,5568,13.06,72806.0,3.05,1.89,1.79,0,*4A
1507204896.85,5569,13.06,72764.5,3.05,1.97,1.75,0,*48
1507204898.07,5570,13.06,72732.8,3.05,2.09,1.85,0,*4B
1507204899.27,5571,13.06,72850.8,3.05,2.35,2.21,0,*48
1507204900.49,5572,13.06,72828.3,3.05,2.13,1.89,0,*4E
1507204901.7,5573,13.06,72784.5,3.05,2.09,1.89,0,*44
1507204902.93,5574,13.06,72816.0,3.07,2.31,2.09,0,*41
1507204904.15,5575,13.06,72808.8,3.05,2.25,2.01,0,*4F
1507204905.35,5576,13.06,72792.5,3.05,2.31,2.21,0,*4B
1507204906.55,5577,13.06,72802.5,3.05,2.31,2.09,0,*40
1507204907.77,5578,13.06,72798.0,3.07,2.31,2.09,0,*4D
1507204908.99,5579,13.06,72820.8,3.05,2.09,1.89,0,*4E
1507204910.21,5580,13.06,72838.5,3.05,2.25,2.09,0,*4D
1507204911.44,5581,13.06,72820.3,3.05,2.25,2.01,0,*44
1507204912.63,5582,13.06,72828.3,3.05,2.31,2.21,0,*40
1507204913.85,5583,13.06,72818.5,3.05,2.13,1.89,0,*40
1507204915.08,5584,13.06,72822.8,3.05,1.97,1.67,0,*48
1507204916.27,5585,13.06,72814.3,3.05,1.75,1.63,0,*41
1507204917.49,5586,13.06,72812.3,3.01,1.59,1.47,0,*4E
1507204918.7,5587,13.06,72816.3,2.97,1.83,1.59,0,*49
1507204919.95,5588,13.06,72820.3,2.97,2.01,1.71,0,*45
1507204921.15,5589,13.06,72816.0,3.05,1.97,1.75,0,*46
1507204922.37,5590,13.06,72778.5,2.97,1.83,1.59,0,*4F
1507204923.62,5591,13.06,72812.8,2.97,1.71,1.55,0,*4F
1507204924.86,5592,13.06,72778.0,2.97,1.67,1.43,0,*4C
1507204926.09,5593,13.06,72772.0,2.97,1.33,1.05,0,*4E
1507204927.3,5594,13.06,72768.8,2.95,1.67,1.51,0,*4B
1507204928.5,5595,13.06,72758.8,2.95,1.75,1.51,0,*49
1507204929.71,5596,13.06,72770.5,2.93,1.79,1.63,0,*41
1507204930.93,5597,13.06,72776.8,2.93,1.79,1.55,0,*45
1507204932.14,5598,13.06,72784.8,2.95,1.67,1.43,0,*44
1507204933.36,5599,13.06,72784.8,2.93,1.79,1.51,0,*4F
1507204934.6,5600,13.06,72798.0,2.93,1.85,1.63,0,*4E
1507204935.82,5601,13.06,72794.0,2.95,1.89,1.67,0,*41
1507204937.04,5602,13.06,72784.0,2.93,1.97,1.79,0,*44
1507204938.28,5603,13.06,72786.8,2.93,2.25,2.09,0,*4B
1507204939.5,5604,13.06,72788.5,2.93,2.35,2.21,0,*47
1507204940.74,5605,13.06,72798.3,2.93,2.51,2.39,0,*4D
1507204941.97,5606,13.06,72810.0,2.95,2.59,2.39,0,*40
1507204943.16,5607,13.06,72816.0,2.95,2.59,2.35,0,*4D
1507204944.41,5608,13.06,72826.3,2.97,2.55,2.39,0,*40
1507204945.6,5609,13.06,72824.5,3.01,2.51,2.31,0,*43
1507204946.82,5610,13.06,72828.0,2.97,2.55,2.31,0,*41
1507204948.02,5611,13.06,72836.5,3.01,2.51,2.27,0,*4D
1507204949.22,5612,13.06,72838.0,3.05,2.59,2.35,0,*41
1507204950.41,5613,13.06,72842.0,3.01,2.55,2.31,0,*4C
1507204951.6,5614,13.06,72844.3,3.01,2.51,2.31,0,*4F
1507204952.8,5615,13.06,72852.5,3.01,2.31,2.17,0,*4C
1507204954.0,5616,13.06,72856.3,3.01,2.31,2.13,0,*4B
1507204955.23,5617,13.06,72858.8,3.01,2.39,2.25,0,*47
1507204956.47,5618,13.06,72876.8,2.97,1.93,1.67,0,*40
1507204957.7,5619,13.06,72886.3,3.05,1.97,1.67,0,*4F
1507204958.89,5620,13.06,72880.3,3.01,1.83,1.59,0,*49
1507204960.13,5621,13.06,72882.5,2.97,1.93,1.59,0,*47
1507204961.34,5622,13.06,72874.8,3.01,1.89,1.59,0,*41
1507204962.56,5623,13.06,72866.0,3.01,1.93,1.67,0,*46
1507204963.8,5624,13.06,72866.3,2.97,1.89,1.59,0,*49
1507204965.02,5625,13.06,72862.8,2.97,1.79,1.59,0,*47
1507204966.26,5626,13.06,72862.8,2.97,1.93,1.67,0,*4D
1507204967.49,5627,13.06,72854.8,2.97,2.01,1.83,0,*4E
1507204968.73,5628,13.06,72844.5,2.97,2.05,1.89,0,*4F
1507204969.96,5629,13.06,72844.5,2.97,2.13,1.83,0,*43
1507204971.2,5630,13.06,72838.5,2.97,1.89,1.71,0,*46
1507204972.41,5631,13.06,72836.5,2.97,1.83,1.59,0,*47
1507204973.63,5632,13.06,72846.0,2.97,1.83,1.59,0,*44
1507204974.88,5633,13.06,72856.0,2.97,1.71,1.59,0,*48
1507204976.07,5634,13.06,72878.3,2.95,1.75,1.63,0,*40
1507204977.29,5635,13.06,72862.3,2.95,1.85,1.63,0,*4E
1507204978.48,5636,13.06,72816.3,2.95,1.79,1.63,0,*4E
1507204979.72,5637,13.06,72726.3,2.93,1.63,1.43,0,*40
1507204980.93,5638,13.06,72728.5,2.95,1.67,1.43,0,*4D
1507204982.15,5639,13.06,72766.8,2.95,0.91,0.71,0,*44
1507204983.37,5640,13.06,72788.5,2.93,1.05,0.83,0,*7D
1507204984.6,5641,13.06,72744.8,2.91,1.33,1.09,0,*48
1507204985.82,5642,13.06,72692.8,2.91,1.25,1.09,0,*4C
1507204987.05,5643,13.06,72720.8,2.89,1.17,0.97,0,*73
1507204988.28,5644,13.06,72736.5,2.89,1.29,1.05,0,*43
1507204989.51,5645,13.06,72784.5,2.87,1.55,1.37,0,*46
1507204990.75,5646,13.06,72754.8,2.89,1.89,1.59,0,*42
1507204991.99,5647,13.06,72784.5,2.89,1.71,1.59,0,*44
1507204993.21,5648,13.06,72790.0,2.87,1.71,1.47,0,*4A
1507204994.43,5649,13.06,72804.3,2.87,1.47,1.43,0,*4A
1507204995.65,5650,13.06,72790.8,2.87,1.55,1.43,0,*41
1507204996.87,5651,13.06,72784.8,2.87,1.71,1.55,0,*41
1507204998.11,5652,13.06,72804.8,2.89,1.89,1.67,0,*4A
1507204999.31,5653,13.06,72810.8,2.87,1.83,1.67,0,*4F
1507205000.52,5654,13.06,72790.8,2.87,1.89,1.71,0,*45
1507205001.71,5655,13.06,72762.3,2.87,1.83,1.67,0,*49
1507205002.93,5656,13.06,72792.5,2.87,1.67,1.55,0,*41
1507205004.15,5657,13.06,72814.5,2.87,1.71,1.47,0,*44
1507205005.37,5658,13.06,72840.3,2.87,1.71,1.59,0,*44
1507205006.56,5659,13.06,72828.0,2.87,1.83,1.67,0,*45
1507205007.76,5660,13.06,72844.8,2.87,2.13,1.83,0,*4F
1507205008.98,5661,13.06,72836.0,2.87,2.09,2.01,0,*4C
1507205010.2,5662,13.06,72840.3,2.87,2.05,1.89,0,*40
1507205011.41,5663,13.06,72852.0,2.87,2.01,1.89,0,*45
1507205012.64,5664,13.06,72842.5,2.89,1.93,1.79,0,*4B
1507205013.86,5665,13.06,72842.3,2.89,2.01,1.83,0,*47
1507205015.09,5666,13.06,72864.5,2.87,2.17,2.01,0,*44
1507205016.32,5667,13.06,72816.0,2.91,2.25,2.17,0,*44
1507205017.53,5668,13.06,72804.8,2.91,2.21,1.97,0,*44
1507205018.78,5669,13.06,72824.5,2.89,1.89,1.71,0,*45
1507205020.02,5670,13.06,72834.0,2.89,1.89,1.71,0,*4D
1507205021.24,5671,13.06,72792.3,2.89,1.79,1.59,0,*49
1507205022.49,5672,13.06,72790.3,2.89,1.71,1.55,0,*4E
1507205023.7,5673,13.06,72732.0,2.89,1.83,1.59,0,*4E
1507205024.9,5674,13.06,72716.8,2.87,2.01,1.83,0,*49
1507205026.12,5675,13.06,72726.5,2.87,1.89,1.71,0,*46
1507205027.34,5676,13.06,72714.0,2.87,1.71,1.47,0,*47
1507205028.56,5677,13.06,72766.0,2.87,1.71,1.55,0,*45
1507205029.77,5678,13.06,72770.8,2.87,2.05,1.89,0,*4B
1507205031.03,5679,13.06,72792.3,2.85,2.17,2.09,0,*40
1507205032.26,5680,13.06,72812.0,2.87,2.17,2.01,0,*4C
1507205033.47,5681,13.06,72800.8,2.87,2.13,1.93,0,*41
1507205034.72,5682,13.06,72804.3,2.89,2.05,1.89,0,*40
1507205035.96,5683,13.06,72816.5,2.89,2.13,2.01,0,*45
1507205037.22,5684,13.06,72816.5,2.89,2.17,2.05,0,*42
1507205038.44,5685,13.06,72828.0,2.91,2.21,1.97,0,*47
1507205039.66,5686,13.06,72848.5,2.89,1.93,1.79,0,*47
1507205040.89,5687,13.06,72862.3,2.91,2.17,1.85,0,*43
1507205042.14,5688,13.06,72864.0,2.89,2.01,1.71,0,*49
1507205043.34,5689,13.06,72866.3,2.91,2.09,1.83,0,*44
1507205044.59,5690,13.06,72866.8,2.89,2.01,1.85,0,*4B
1507205045.81,5691,13.06,72872.8,2.91,2.09,1.93,0,*4C
1507205047.04,5692,13.06,72872.0,2.91,2.17,2.05,0,*4C
1507205048.26,5693,13.06,72878.0,2.91,2.05,1.97,0,*46
1507205049.46,5694,13.06,72874.3,2.91,2.31,2.17,0,*4D
1507205050.68,5695,13.06,72868.5,2.91,2.21,2.09,0,*42
1507205051.88,5696,13.06,72868.0,2.91,2.35,2.25,0,*4A
1507205053.07,5697,13.06,72860.0,2.91,2.55,2.35,0,*4C
1507205054.27,5698,13.06,72850.0,2.91,2.59,2.35,0,*4F
1507205055.49,5699,13.06,72840.5,2.93,2.51,2.35,0,*44
1507205056.73,5700,13.06,72836.8,2.93,2.47,2.25,0,*43
1507205057.95,5701,13.06,72822.0,2.95,2.39,2.25,0,*4D
1507205059.14,5702,13.06,72764.3,2.95,2.35,2.21,0,*46
1507205060.36,5703,13.06,72716.5,2.95,2.25,2.09,0,*4C
1507205061.57,5704,13.06,72762.5,2.95,2.13,1.89,0,*45
1507205062.79,5705,13.06,72762.3,2.95,2.01,1.89,0,*47
1507205064.0,5706,13.06,72772.3,2.95,2.09,1.89,0,*4C
1507205065.22,5707,13.06,72802.5,2.93,1.97,1.79,0,*40
1507205066.46,5708,13.06,72808.0,2.93,2.25,2.09,0,*41
1507205067.65,5709,13.06,72814.8,2.95,2.35,2.21,0,*4D
1507205068.89,5710,13.06,72828.0,2.93,2.09,1.89,0,*4D
1507205070.12,5711,13.06,72820.5,2.93,2.21,1.97,0,*49
1507205071.34,5712,13.06,72814.8,2.93,2.09,1.79,0,*40
1507205072.54,5713,13.06,72808.5,2.95,1.75,1.55,0,*41
1507205073.75,5714,13.06,72822.0,2.95,1.67,1.51,0,*41
1507205074.99,5715,13.06,72828.5,2.93,2.21,2.01,0,*41
1507205076.23,5716,13.06,72836.8,2.93,2.25,2.09,0,*4E
1507205077.47,5717,13.06,72850.8,2.93,2.21,2.09,0,*4B
1507205078.67,5718,13.06,72864.3,2.95,2.35,2.13,0,*4C
1507205079.89,5719,13.06,72860.0,2.95,2.25,2.01,0,*4F
1507205081.07,5720,13.06,72856.8,2.95,2.35,2.21,0,*46
1507205082.32,5721,13.06,72862.5,2.93,2.39,2.21,0,*4D
1507205083.54,5722,13.06,72896.8,2.93,2.51,2.27,0,*46
1507205084.73,5723,13.06,72922.3,2.95,2.59,2.27,0,*49
1507205085.92,5724,13.06,72910.8,2.95,2.35,2.13,0,*43
1507205087.15,5725,13.06,72890.3,2.95,2.47,2.25,0,*42
1507205088.34,5726,13.06,72884.0,2.95,2.51,2.27,0,*44
1507205089.55,5727,13.06,72862.8,2.95,2.21,2.01,0,*46
1507205090.75,5728,13.06,72868.5,2.95,2.31,2.17,0,*4F
1507205091.97,5729,13.06,72864.8,2.95,2.25,2.09,0,*44
1507205093.22,5730,13.06,72860.8,2.97,2.39,2.25,0,*4D
1507205094.45,5731,13.06,72844.8,2.97,2.43,2.27,0,*43
1507205095.7,5732,13.06,72842.0,2.97,2.17,2.05,0,*41
1507205096.95,5733,13.06,72836.8,2.97,1.59,1.55,0,*4F
1507205098.14,5734,13.06,72788.0,2.95,1.89,1.75,0,*45
1507205099.33,5735,13.06,72786.8,2.95,1.89,1.79,0,*48
1507205100.55,5736,13.06,72774.5,2.95,2.25,2.13,0,*41
1507205101.74,5737,13.06,72800.8,2.95,2.35,2.21,0,*40
1507205102.94,5738,13.06,72810.3,2.95,2.27,2.25,0,*48
1507205104.15,5739,13.06,72798.3,2.95,2.21,1.97,0,*45
1507205105.36,5740,13.06,72792.0,2.95,1.67,1.55,0,*44
1507205106.61,5741,13.06,72784.8,2.97,1.89,1.67,0,*46
1507205107.85,5742,13.06,72808.0,2.97,1.89,1.63,0,*41
1507205109.06,5743,13.06,72808.3,2.93,1.75,1.43,0,*45
1507205110.28,5744,13.06,72804.5,2.95,1.67,1.51,0,*44
1507205111.47,5745,13.06,72866.3,2.95,2.01,1.79,0,*4C
1507205112.71,5746,13.06,72876.3,2.93,2.21,2.01,0,*47
1507205113.92,5747,13.06,72868.3,2.95,1.89,1.67,0,*42
1507205115.17,5748,13.06,72838.3,2.93,1.85,1.67,0,*47
1507205116.39,5749,13.06,72806.0,2.93,1.89,1.75,0,*49
1507205117.61,5750,13.06,72786.3,2.95,2.01,1.85,0,*4B
1507205118.8,5751,13.06,72776.5,2.95,2.01,1.79,0,*49
1507205120.02,5752,13.06,72756.0,2.93,2.01,1.79,0,*4C
1507205121.25,5753,13.06,72768.5,2.95,1.97,1.85,0,*44
1507205122.46,5754,13.06,72758.5,2.95,2.21,2.09,0,*4A
1507205123.68,5755,13.06,72766.5,2.95,2.39,2.21,0,*48
1507205124.88,5756,13.06,72770.3,2.95,2.27,2.13,0,*45
1507205126.13,5757,13.06,72796.5,2.93,2.09,1.85,0,*42
1507205127.34,5758,13.06,72814.8,2.95,2.21,2.01,0,*4E
1507205128.58,5759,13.06,72824.5,2.93,2.09,1.97,0,*4F
1507205129.78,5760,13.06,72844.8,2.95,2.27,2.13,0,*40
1507205130.97,5761,13.06,72854.0,2.95,2.35,2.13,0,*42
1507205132.19,5762,13.06,72844.8,2.95,2.25,2.13,0,*40
1507205133.41,5763,13.06,72840.3,2.95,2.21,1.97,0,*4A
1507205134.62,5764,13.06,72832.0,2.95,2.09,1.97,0,*47
1507205135.83,5765,13.06,72830.3,2.95,2.21,1.97,0,*4C
1507205137.03,5766,13.06,72802.3,2.95,2.27,2.13,0,*46
1507205138.24,5767,13.06,72786.8,2.95,2.21,1.97,0,*4E
1507205139.46,5768,13.06,72768.8,2.95,2.25,2.13,0,*4A
1507205140.65,5769,13.06,72722.0,2.95,2.35,2.21,0,*4B
1507205141.84,5770,13.06,72720.5,2.95,2.35,2.21,0,*43
1507205143.06,5771,13.06,72684.5,2.95,2.13,1.97,0,*48
1507205144.27,5772,13.06,72694.3,2.95,2.21,1.97,0,*4A
1507205145.46,5773,13.06,72682.3,2.95,2.27,2.21,0,*43
1507205146.68,5774,13.06,72714.0,2.95,2.01,1.85,0,*4D
1507205147.9,5775,13.06,72710.3,2.95,1.67,1.55,0,*42
1507205149.12,5776,13.06,72832.5,2.95,1.85,1.67,0,*4C
1507205150.32,5777,13.06,72754.0,2.95,1.85,1.75,0,*4E
1507205151.53,5778,13.06,72810.5,2.95,1.89,1.67,0,*4E
1507205152.75,5779,13.06,72796.5,2.95,2.13,1.97,0,*40
1507205153.96,5780,13.06,72814.0,2.93,2.27,2.21,0,*49
1507205155.18,5781,13.06,72822.0,2.95,2.25,2.13,0,*4D
1507205156.37,5782,13.06,72830.0,2.95,2.35,2.21,0,*4E
1507205157.57,5783,13.06,72826.3,2.95,2.39,2.27,0,*45
1507205158.76,5784,13.06,72796.5,2.95,2.35,2.25,0,*4C
1507205159.98,5785,13.06,72792.0,2.95,2.47,2.25,0,*48
1507205161.2,5786,13.06,72788.0,2.95,2.59,2.25,0,*44
1507205162.42,5787,13.06,72800.3,2.97,2.43,2.31,0,*49
1507205163.65,5788,13.06,72798.5,2.97,2.43,2.27,0,*41
1507205164.9,5789,13.06,72808.5,2.97,2.17,2.01,0,*45
1507205166.1,5790,13.06,72826.0,3.01,2.43,2.27,0,*46
1507205167.33,5791,13.06,72830.8,2.97,2.31,2.17,0,*4F
1507205168.58,5792,13.06,72838.3,2.97,2.43,2.17,0,*49
1507205169.83,5793,13.06,72814.0,2.97,2.25,2.01,0,*4F
1507205171.08,5794,13.06,72848.0,2.97,2.17,2.01,0,*49
1507205172.33,5795,13.06,72812.5,2.97,2.25,2.01,0,*49
1507205173.58,5796,13.06,72834.8,2.97,2.25,2.13,0,*49
1507205174.81,5797,13.06,72798.8,2.97,2.01,1.83,0,*44
1507205176.06,5798,13.06,72802.0,2.97,2.17,1.93,0,*4D
1507205177.31,5799,13.06,72834.3,2.97,2.51,2.43,0,*40
1507205178.51,5800,13.06,72836.3,3.01,2.39,2.27,0,*4D
1507205179.71,5801,13.06,72824.3,3.01,2.51,2.27,0,*42
1507205180.93,5802,13.06,72820.3,2.97,2.39,2.27,0,*41
1507205182.18,5803,13.06,72834.0,2.97,2.25,2.05,0,*4D
1507205183.38,5804,13.06,72830.5,3.01,2.31,2.25,0,*43
1507205184.57,5805,13.06,72810.5,3.01,2.61,2.43,0,*47
1507205185.77,5806,13.06,72794.3,3.01,2.31,2.25,0,*41
1507205186.96,5807,13.06,72774.3,3.01,2.55,2.31,0,*47
1507205188.16,5808,13.06,72808.3,3.01,2.39,2.27,0,*45
1507205189.38,5809,13.06,72826.8,3.01,2.17,2.01,0,*4C
1507205190.55,5810,13.06,72856.5,3.05,2.35,2.31,0,*43
1507205191.78,5811,13.06,72782.5,3.05,2.47,2.39,0,*4F
1507205192.98,5812,13.06,72742.8,3.05,2.91,2.85,0,*40
1507205194.15,5813,13.06,72676.0,3.05,2.95,2.91,0,*40
1507205195.36,5814,13.06,72622.8,3.05,2.91,2.81,0,*42
1507205196.58,5815,13.06,72664.0,3.07,2.47,2.35,0,*45
1507205197.8,5816,13.06,72708.0,3.07,2.39,2.31,0,*4B
1507205199.03,5817,13.06,72680.8,3.05,2.47,2.25,0,*44
1507205200.22,5818,13.06,72658.3,3.05,2.47,2.31,0,*4E
1507205201.48,5819,13.06,72716.8,3.07,2.51,2.39,0,*42
1507205202.68,5820,13.06,72706.0,3.05,2.47,2.35,0,*41
1507205203.9,5821,13.06,72774.3,3.07,2.61,2.39,0,*4A
1507205205.13,5822,13.06,72828.3,3.07,2.31,2.13,0,*44
1507205206.33,5823,13.06,72824.3,3.05,2.31,2.13,0,*47
1507205207.55,5824,13.06,72824.0,3.07,2.35,2.25,0,*43
1507205208.8,5825,13.06,72800.0,3.07,2.25,2.01,0,*45
1507205210.02,5826,13.06,72834.5,3.07,2.31,2.21,0,*41
1507205211.21,5827,13.06,72840.0,3.07,2.35,2.31,0,*45
1507205212.43,5828,13.06,72786.0,3.07,2.47,2.35,0,*4B
1507205213.65,5829,13.06,72736.3,3.07,2.35,2.25,0,*4E
1507205214.88,5830,13.06,72714.5,3.07,2.47,2.31,0,*46
1507205216.07,5831,13.06,72776.0,3.07,2.35,2.31,0,*42
1507205217.29,5832,13.06,72738.3,3.07,2.61,2.39,0,*48
1507205218.49,5833,13.06,72688.8,3.07,2.35,2.35,0,*44
1507205219.71,5834,13.06,72708.3,3.07,2.31,2.09,0,*48
1507205220.95,5835,13.06,72726.0,3.07,2.01,1.89,0,*41
1507205222.18,5836,13.06,72726.0,3.09,2.17,2.01,0,*48
1507205223.42,5837,13.06,72710.0,3.07,2.21,2.09,0,*4A
1507205224.66,5838,13.06,72746.3,3.07,2.01,1.89,0,*4C
1507205225.91,5839,13.06,72728.5,3.07,2.25,2.01,0,*48
1507205227.1,5840,13.06,72730.5,3.05,2.31,2.21,0,*43
1507205228.3,5841,13.06,72728.5,3.05,2.31,2.21,0,*42
1507205229.54,5842,13.06,72724.0,3.07,2.21,2.01,0,*40
1507205230.77,5843,13.06,72770.3,3.05,2.25,2.13,0,*44
1507205231.99,5844,13.06,72774.3,3.07,2.31,2.25,0,*41
1507205233.21,5845,13.06,72792.3,3.07,2.39,2.31,0,*4D
1507205234.47,5846,13.06,72816.3,3.07,2.69,2.51,0,*4D
1507205235.69,5847,13.06,72830.5,3.07,2.51,2.35,0,*45
1507205236.94,5848,13.06,72836.5,3.07,2.01,1.85,0,*47
1507205238.14,5849,13.06,72768.8,3.05,1.75,1.55,0,*49
1507205239.33,5850,13.06,72762.3,3.05,1.89,1.75,0,*40
1507205240.56,5851,13.06,72818.0,3.05,2.01,1.85,0,*4D
1507205241.81,5852,13.06,72794.8,3.07,2.21,2.01,0,*41
1507205243.0,5853,13.06,72806.3,3.05,2.39,2.31,0,*48
1507205244.22,5854,13.06,72812.3,3.07,2.51,2.31,0,*43
1507205245.42,5855,13.06,72818.0,3.05,2.51,2.35,0,*44
1507205246.67,5856,13.06,72834.0,3.07,2.59,2.39,0,*41
1507205247.9,5857,13.06,72842.5,3.05,2.59,2.47,0,*4B
1507205249.1,5858,13.06,72838.3,3.09,2.65,2.51,0,*40
1507205250.3,5859,13.06,72846.0,3.09,2.65,2.51,0,*41
1507205251.55,5860,13.06,72832.8,3.07,2.73,2.51,0,*42
1507205252.75,5861,13.06,72822.5,3.09,2.65,2.55,0,*4E
1507205253.97,5862,13.06,72822.5,3.11,2.61,2.51,0,*44
1507205255.17,5863,13.06,72818.0,3.09,2.65,2.51,0,*48
1507205256.37,5864,13.06,72776.5,3.09,2.61,2.43,0,*48
1507205257.61,5865,13.06,72740.0,3.11,2.55,2.39,0,*4A
1507205258.8,5866,13.06,72720.0,3.09,2.43,2.35,0,*4B
1507205260.0,5867,13.06,72778.3,3.09,2.43,2.27,0,*49
1507205261.22,5868,13.06,72772.3,3.11,2.27,2.05,0,*4D
1507205262.41,5869,13.06,72712.3,3.09,1.93,1.79,0,*41
1507205263.63,5870,13.06,72732.3,3.11,2.05,1.83,0,*49
1507205264.84,5871,13.06,72728.3,3.09,2.13,1.93,0,*47
1507205266.06,5872,13.06,72768.3,3.09,2.25,2.05,0,*4D
1507205267.25,5873,13.06,72788.8,3.09,2.55,2.35,0,*48
1507205268.45,5874,13.06,72800.5,3.09,2.51,2.35,0,*4B
1507205269.64,5875,13.06,72784.0,3.09,2.65,2.43,0,*4C
1507205270.86,5876,13.06,72804.5,3.09,2.25,2.05,0,*49
1507205272.07,5877,13.06,72788.0,3.09,2.01,1.71,0,*4E
1507205273.27,5878,13.06,72830.5,3.09,2.05,1.83,0,*48
1507205274.46,5879,13.06,72800.0,3.09,2.01,1.83,0,*4D
1507205275.67,5880,13.06,72816.0,3.09,2.05,1.89,0,*45
1507205276.87,5881,13.06,72796.5,3.09,2.27,2.13,0,*44
1507205278.09,5882,13.06,72788.3,3.09,2.39,2.25,0,*4D
1507205279.31,5883,13.06,72806.5,3.11,2.43,2.35,0,*49
1507205280.5,5884,13.06,72788.5,3.09,2.43,2.35,0,*47
1507205281.72,5885,13.06,72822.5,3.11,2.43,2.35,0,*4F
1507205282.97,5886,13.06,72812.3,3.11,2.51,2.39,0,*43
1507205284.16,5887,13.06,72780.0,3.09,2.51,2.35,0,*47
1507205285.35,5888,13.06,72798.3,3.09,2.43,2.35,0,*4B
1507205286.57,5889,13.06,72844.3,3.11,2.43,2.27,0,*40
1507205287.81,5890,13.06,72780.3,3.11,1.51,1.29,0,*45
1507205289.03,5891,13.06,72716.8,3.07,1.41,1.25,0,*4E
1507205290.28,5892,13.06,72800.0,3.07,2.13,1.97,0,*40
1507205291.52,5893,13.06,72816.5,3.07,2.21,2.01,0,*4C
1507205292.74,5894,13.06,72824.0,3.07,2.39,2.31,0,*41
1507205293.96,5895,13.06,72830.5,3.07,2.51,2.31,0,*4E
1507205295.18,5896,13.06,72826.3,3.09,2.39,2.17,0,*49
1507205296.37,5897,13.06,72818.3,3.09,2.55,2.35,0,*42
1507205297.59,5898,13.06,72818.8,3.09,2.55,2.39,0,*41
1507205298.84,5899,13.06,72834.8,3.11,2.51,2.39,0,*4D
1507205300.06,5900,13.06,72860.0,3.11,2.01,1.83,0,*4B
1507205301.25,5901,13.06,72846.5,3.09,1.79,1.59,0,*48
1507205302.46,5902,13.06,72832.3,3.11,1.83,1.71,0,*4D
1507205303.65,5903,13.06,72844.8,3.09,1.79,1.67,0,*47
1507205304.87,5904,13.06,72844.8,3.09,2.25,2.01,0,*49
1507205306.06,5905,13.06,72862.0,3.09,2.27,2.05,0,*4E
1507205307.25,5906,13.06,72864.8,3.09,2.35,2.25,0,*4C
1507205308.47,5907,13.06,72848.8,3.09,2.13,2.01,0,*4F
1507205309.69,5908,13.06,72848.5,3.09,2.25,2.13,0,*46
1507205310.91,5909,13.06,72878.3,3.09,2.51,2.39,0,*4C
1507205312.11,5910,13.06,72878.0,3.09,2.27,2.05,0,*4A
1507205313.3,5911,13.06,72858.3,3.09,2.27,2.05,0,*4B
1507205314.52,5912,13.06,72872.8,3.09,1.93,1.71,0,*44
1507205315.72,5913,13.06,72876.3,3.09,2.05,1.89,0,*4E
1507205316.94,5914,13.06,72870.5,3.09,2.17,1.89,0,*4A
1507205318.15,5915,13.06,72788.8,3.09,2.05,1.93,0,*43
1507205319.37,5916,13.06,72760.0,3.09,2.25,2.05,0,*4E
1507205320.6,5917,13.06,72770.5,3.07,2.01,1.79,0,*4F
1507205321.84,5918,13.06,72778.3,3.07,2.21,1.97,0,*42
1507205323.05,5919,13.06,72784.0,3.09,2.25,2.01,0,*45
1507205324.27,5920,13.06,72772.8,3.09,2.39,2.25,0,*44
1507205325.49,5921,13.06,72762.8,3.09,2.39,2.25,0,*45
1507205326.69,5922,13.06,72750.8,3.09,2.61,2.43,0,*4B
1507205327.9,5923,13.06,72740.0,3.09,2.73,2.43,0,*49
1507205329.11,5924,13.06,72752.0,3.09,1.89,1.71,0,*4A
1507205330.3,5925,13.06,72764.5,3.09,2.35,2.05,0,*4F
1507205331.49,5926,13.06,72792.3,3.09,2.43,2.27,0,*4D
1507205332.69,5927,13.06,72826.5,3.09,2.43,2.35,0,*4F
1507205333.88,5928,13.06,72818.0,3.09,2.35,2.17,0,*41
1507205335.12,5929,13.06,72802.8,3.11,1.89,1.67,0,*49
1507205336.32,5930,13.06,72788.5,3.09,2.05,1.83,0,*45
1507205337.53,5931,13.06,72778.5,3.09,2.25,2.05,0,*4B
1507205338.73,5932,13.06,72792.3,3.09,2.35,2.17,0,*4A
1507205339.92,5933,13.06,72654.5,3.09,2.27,2.05,0,*4B
1507205341.11,5934,13.06,72730.5,3.09,1.79,1.55,0,*42